sat.trackr.live / text

‹ back to catalog

TDRS 13

NORAD 42915 · 2017-047A

PAYLOAD ACTIVE UNKNOWN

§ Identity

Operator
Country
US
Launch date
2017-08-18
Launch site
AFETR
Launch vehicle
Mass (kg)
RCS (m²)

Purposes: comms

External: N2YO · Heavens-Above · Gunter

§ Orbital elements

Epoch: 2026-05-25T03:41:17.581344Z

Period
1,436.09 min
Inclination
3.4465°
Eccentricity
0.0014159
Mean motion
1.00272091 rev/d
Perigee alt
35,726.8 km
Apogee alt
35,846.2 km
Semi-major
42,164.6 km
B*
0.0000e+0
RAAN
2.1881°
Arg perigee
101.7767°
Mean anomaly
182.6385°
Rev number
3,211

§ Raw data

TDRS 131 42915U 17047A   26145.15367571 -.00000103  00000+0  00000+0 0  99962 42915   3.4465   2.1881 0014159 101.7767 182.6385  1.00272091 32116

JSON: /api/v1/satellites/42915 · /tle

For live sub-satellite position, see the globe view (requires WebGL).

§ Visibility from observer

Set your observer location to see the next 7 days of passes ≥ 10°. The values pass through the URL so the page stays shareable.

No JS? Fill the form by hand. The geolocation button needs JavaScript.